Wilmington, NC

7:29 PM EDT on June 22, 2017 (GMT -0400)
Wilmington International

Weather History for KILM - December, 2011

Change the Weather History Date:

Friday, December 30, 2011

  Actual Average Record
Temperature  
Mean Temperature 50 °F 46 °F  
Max Temperature 64 °F 56 °F 81 °F (1984)
Min Temperature 35 °F 36 °F 6 °F (1917)
Degree Days  
Heating Degree Days 15 19  
Month to date heating degree days 371 494  
Since 1 July heating degree days 698 863  
Cooling Degree Days 0 0  
Month to date cooling degree days 7 0  
Year to date cooling degree days 2343 2037  
Moisture  
Dew Point 40 °F    
Average Humidity 63    
Maximum Humidity 92    
Minimum Humidity 34    
Precipitation  
Precipitation 0.00 in 0.11 in 1.49 in (1948)
Month to date precipitation 0.59 3.51  
Year to date precipitation 43.96 57.50  
Snow  
Snow 0.00 in 0.10 in 3.60 in (1917)
Month to date snowfall 0.0 0.8  
Since 1 July snowfall 0.0 0.8  
Snow Depth 0.00 in    
Sea Level Pressure  
Sea Level Pressure 30.10 in    
Wind  
Wind Speed 6 mph (SSW)    
Max Wind Speed 15 mph    
Max Gust Speed 22 mph    
Visibility 10 miles    
Events      
T = Trace of Precipitation, MM = Missing Value Source: NWS Daily Summary

Daily Weather History Graph

Daily Weather History Graph

Search for Another Location

Airport or City:

Trip Planner

Search our weather history database for the weather conditions in past years. The results will help you decide how hot, cold, wet, or windy it might be!

Date:

Astronomy

Dec. 30, 2011 Rise Set
Actual Time 7:17 AM EST 5:11 PM EST
Civil Twilight 6:49 AM EST 5:38 PM EST
Nautical Twilight 6:18 AM EST 6:10 PM EST
Astronomical Twilight 5:47 AM EST 6:40 PM EST
Moon 10:52 AM EST (12/30) 11:26 PM EST (12/30)
Length of Visible Light 10h 49m
Length of Day
9h 53m
Waxing Crescent, 35% of the Moon is Illuminated
Dec 30
Waxing Crescent
Jan 1
First Quarter
Jan 9
Full
Jan 16
Last Quarter
Jan 23
New

Hourly Weather History & Observations

Time (EST) Temp. Windchill Dew Point Humidity Pressure Visibility Wind Dir Wind Speed Gust Speed Precip Events Conditions
12:53 AM 42.1 °F 39.2 °F 37.0 °F 82% 30.11 in 10.0 mi WSW 4.6 mph - N/A   Clear
1:53 AM 42.1 °F 39.2 °F 37.0 °F 82% 30.11 in 10.0 mi SW 4.6 mph - N/A   Clear
2:53 AM 43.0 °F 39.5 °F 37.9 °F 82% 30.10 in 10.0 mi SW 5.8 mph - N/A   Clear
3:53 AM 42.1 °F 39.2 °F 37.0 °F 82% 30.11 in 10.0 mi WSW 4.6 mph - N/A   Clear
4:53 AM 39.0 °F - 36.0 °F 89% 30.11 in 10.0 mi Calm Calm - N/A   Clear
5:53 AM 35.1 °F - 34.0 °F 96% 30.12 in 10.0 mi Calm Calm - N/A   Clear
6:53 AM 36.0 °F - 34.0 °F 93% 30.14 in 10.0 mi Calm Calm - N/A   Clear
7:53 AM 39.0 °F - 36.0 °F 89% 30.15 in 10.0 mi Calm Calm - N/A   Clear
8:53 AM 48.9 °F - 43.0 °F 80% 30.17 in 10.0 mi SSW 3.5 mph - N/A   Clear
9:53 AM 55.0 °F - 41.0 °F 59% 30.17 in 10.0 mi SW 6.9 mph - N/A   Clear
10:53 AM 59.0 °F - 39.0 °F 48% 30.16 in 10.0 mi SW 8.1 mph - N/A   Clear
11:53 AM 61.0 °F - 37.9 °F 42% 30.12 in 10.0 mi SW 10.4 mph - N/A   Clear
12:53 PM 63.0 °F - 37.0 °F 38% 30.09 in 10.0 mi South 10.4 mph 17.3 mph N/A   Clear
1:53 PM 64.0 °F - 35.1 °F 34% 30.07 in 10.0 mi SW 12.7 mph - N/A   Clear
2:53 PM 63.0 °F - 36.0 °F 37% 30.06 in 10.0 mi SSW 11.5 mph - N/A   Clear
3:53 PM 61.0 °F - 37.0 °F 41% 30.07 in 10.0 mi SSW 12.7 mph 19.6 mph N/A   Clear
4:53 PM 57.9 °F - 41.0 °F 53% 30.07 in 10.0 mi SSW 9.2 mph - N/A   Clear
5:53 PM 53.1 °F - 42.1 °F 66% 30.07 in 10.0 mi SSW 4.6 mph - N/A   Clear
6:53 PM 54.0 °F - 44.1 °F 69% 30.07 in 10.0 mi South 8.1 mph - N/A   Clear
7:53 PM 55.0 °F - 46.0 °F 72% 30.07 in 10.0 mi SSW 5.8 mph - N/A   Overcast
8:53 PM 53.1 °F - 46.9 °F 80% 30.06 in 10.0 mi South 6.9 mph - N/A   Scattered Clouds
9:53 PM 52.0 °F - 48.0 °F 86% 30.06 in 10.0 mi South 5.8 mph - N/A   Scattered Clouds
10:53 PM 54.0 °F - 50.0 °F 86% 30.05 in 10.0 mi South 4.6 mph - N/A   Mostly Cloudy
11:53 PM 55.9 °F - 52.0 °F 87% 30.04 in 10.0 mi South 5.8 mph - N/A   Overcast